Simultaneous Nadir Overpasses (SNOs) Predictions

Prediction of SNOs between FY3D and METOP-C Satellite Orbit:

Table of predicted SNOs for the next 14.0 days since TLE Epoch: 4/18/2020
Index Date (FY3D) Time (FY3D) Lat,Lon (FY3D) SZA (FY3D ) Date (METOP-C) Time (METOP-C) Lat,Lon (METOP-C) SZA (METOP-C ) Distance(km) Time Diff (sec)
1 04/29/2020 04:35:12 73.71, 102.10 59.22 04/29/2020 04:36:18 73.64, 105.06 59.02 92.78 66
2 04/29/2020 05:25:54 -73.64, -90.41 120.88 04/29/2020 05:27:01 -73.58, -87.76 121.05 83.30 67
3 04/29/2020 06:16:36 73.46, 77.32 58.92 04/29/2020 06:17:45 73.37, 79.10 58.75 57.43 69
4 04/29/2020 07:07:17 -73.34,-115.08 121.23 04/29/2020 07:08:28 -73.31,-113.71 121.32 43.93 71
5 04/29/2020 07:57:59 73.15, 52.63 58.56 04/29/2020 07:59:12 73.10, 53.16 58.48 18.23 73
6 04/29/2020 08:48:41 -73.08,-139.89 121.53 04/29/2020 08:49:55 -73.04,-139.64 121.59 9.45 74
7 04/29/2020 09:39:25 73.00, 27.60 58.38 04/29/2020 09:40:36 72.98, 27.56 58.34 2.52 71
8 04/29/2020 10:30:08 -72.98,-165.04 121.66 04/29/2020 10:31:18 -72.97,-165.13 121.68 3.20 70
9 04/29/2020 11:20:54 72.99, 2.23 58.35 04/29/2020 11:21:57 73.01, 2.29 58.35 2.34 63
10 04/29/2020 12:11:37 -72.97, 169.60 121.69 04/29/2020 12:12:39 -73.00, 169.59 121.67 2.80 62
11 04/29/2020 13:02:23 72.99, -23.13 58.32 04/29/2020 13:03:19 72.99, -23.09 58.31 1.15 56
12 04/29/2020 13:53:06 -72.97, 144.24 121.71 04/29/2020 13:54:01 -72.98, 144.21 121.71 1.30 55
13 04/29/2020 14:43:52 72.99, -48.49 58.30 04/29/2020 14:44:41 72.97, -48.48 58.27 2.16 49
14 04/29/2020 15:34:35 -72.97, 118.87 121.74 04/29/2020 15:35:23 -72.96, 118.83 121.75 1.66 48
15 04/29/2020 16:25:21 72.98, -73.85 58.27 04/29/2020 16:26:02 73.00, -73.75 58.28 3.71 41
16 04/29/2020 17:16:04 -72.96, 93.51 121.77 04/29/2020 17:16:45 -72.94, 93.45 121.79 3.33 41
17 04/29/2020 18:06:50 72.98, -99.22 58.25 04/29/2020 18:07:24 72.98, -99.14 58.24 2.63 34
18 04/29/2020 18:57:33 -72.96, 68.15 121.79 04/29/2020 18:58:06 -72.97, 68.17 121.79 1.45 33
19 04/29/2020 19:48:19 72.98,-124.58 58.22 04/29/2020 19:48:46 72.96,-124.52 58.20 2.76 27
20 04/29/2020 20:39:02 -72.95, 42.79 121.82 04/29/2020 20:39:28 -72.95, 42.79 121.83 0.56 26
21 04/29/2020 21:29:47 72.92,-149.83 58.14 04/29/2020 21:30:08 72.94,-149.90 58.16 2.88 21
22 04/29/2020 22:20:31 -72.95, 17.42 121.84 04/29/2020 22:20:50 -72.93, 17.41 121.87 2.40 19
23 04/29/2020 23:11:16 72.92,-175.20 58.11 04/29/2020 23:11:30 72.92,-175.28 58.12 2.87 14
24 04/30/2020 00:02:00 -72.95, -7.94 121.87 04/30/2020 00:02:11 -72.96, -7.87 121.86 2.75 11
25 04/30/2020 00:52:45 72.91, 159.44 58.09 04/30/2020 00:52:51 72.95, 159.44 58.12 3.85 6
26 04/30/2020 01:43:29 -72.94, -33.30 121.90 04/30/2020 01:43:33 -72.94, -33.25 121.90 1.71 4
27 04/30/2020 02:34:14 72.91, 134.08 58.06 04/30/2020 02:34:13 72.93, 134.06 58.08 2.13 1
28 04/30/2020 03:24:58 -72.94, -58.66 121.92 04/30/2020 03:24:55 -72.92, -58.63 121.94 2.35 3
29 04/30/2020 04:15:42 72.91, 108.72 58.04 04/30/2020 04:15:34 72.91, 108.68 58.04 1.35 8
30 04/30/2020 05:06:25 -72.88, -83.92 122.00 04/30/2020 05:06:16 -72.90, -84.01 121.98 3.52 9
31 04/30/2020 05:57:11 72.90, 83.35 58.01 04/30/2020 05:56:56 72.89, 83.29 58.00 2.57 15
32 04/30/2020 06:47:55 -72.93,-109.39 121.97 04/30/2020 06:47:37 -72.93,-109.29 121.97 3.27 18
33 04/30/2020 07:38:40 72.90, 57.99 57.99 04/30/2020 07:38:17 72.92, 58.02 58.01 2.36 23
34 04/30/2020 08:29:24 -72.93,-134.75 122.00 04/30/2020 08:28:59 -72.91,-134.67 122.01 3.23 25
35 04/30/2020 09:20:09 72.89, 32.63 57.96 04/30/2020 09:19:39 72.90, 32.63 57.97 0.42 30
36 04/30/2020 10:10:52 -72.87,-160.01 122.08 04/30/2020 10:10:21 -72.89,-160.05 122.05 2.44 31
37 04/30/2020 11:01:38 72.89, 7.27 57.93 04/30/2020 11:01:01 72.88, 7.25 57.93 1.52 37
38 04/30/2020 11:52:21 -72.87, 174.63 122.10 04/30/2020 11:51:43 -72.87, 174.56 122.09 2.13 38
39 04/30/2020 12:43:07 72.89, -18.10 57.91 04/30/2020 12:42:22 72.91, -18.02 57.93 3.37 45
40 04/30/2020 13:33:50 -72.87, 149.27 122.13 04/30/2020 13:33:05 -72.85, 149.18 122.13 3.21 45
41 04/30/2020 14:24:36 72.88, -43.46 57.88 04/30/2020 14:23:44 72.89, -43.41 57.89 1.83 52
42 04/30/2020 15:15:19 -72.86, 123.90 122.15 04/30/2020 15:14:26 -72.88, 123.91 122.13 2.16 53
43 04/30/2020 16:06:05 72.88, -68.82 57.86 04/30/2020 16:05:06 72.87, -68.79 57.85 1.70 59
44 04/30/2020 16:56:48 -72.86, 98.54 122.18 04/30/2020 16:55:48 -72.86, 98.52 122.17 0.64 60
45 04/30/2020 17:47:34 72.87, -94.19 57.83 04/30/2020 17:46:28 72.85, -94.17 57.81 3.15 66
46 04/30/2020 18:38:17 -72.85, 73.18 122.21 04/30/2020 18:37:10 -72.84, 73.14 122.21 1.84 67
47 04/30/2020 19:29:03 72.87,-119.55 57.81 04/30/2020 19:27:49 72.88,-119.45 57.82 3.37 74
48 04/30/2020 20:19:46 -72.85, 47.81 122.23 04/30/2020 20:18:31 -72.87, 47.87 122.20 2.93 75
49 04/30/2020 21:10:28 72.66,-144.49 57.56 04/30/2020 21:09:15 72.65,-145.25 57.60 25.33 73
50 04/30/2020 22:01:10 -72.59, 22.98 122.53 04/30/2020 21:59:58 -72.60, 21.96 122.47 33.72 72
51 04/30/2020 22:51:51 72.35,-169.23 57.21 04/30/2020 22:50:42 72.38,-171.15 57.32 64.45 69
52 04/30/2020 23:42:34 -72.34, -1.88 122.82 04/30/2020 23:41:25 -72.32, -3.93 122.74 69.16 69




NCC Satellite Simultaneous Nadir Overpasses (SNOs) Prediction Service
